Lake Clear, NY

12:24 AM EST on February 10, 2016 (GMT -0500)
Adirondack Regional

Weather History for KSLK - July, 2012

Change the Weather History Date:

Friday, July 20, 2012

  Actual Average Record
Temperature  
Mean Temperature 56 °F 64 °F  
Max Temperature 74 °F 76 °F 90 °F (1977)
Min Temperature 38 °F 51 °F 34 °F (2000)
Degree Days  
Heating Degree Days 10 3  
Month to date heating degree days 60  
Since 1 June heating degree days 244  
Since 1 July heating degree days 60  
Cooling Degree Days 0 1  
Month to date cooling degree days 37 35  
Year to date cooling degree days 94 64  
Since 1 June cooling degree days 78 61  
Growing Degree Days 5 (Base 50)    
Moisture  
Dew Point 44 °F    
Average Humidity 67    
Maximum Humidity 100    
Minimum Humidity 33    
Precipitation  
Precipitation 0.00 in 0.13 in 1.62 in (2008)
Month to date precipitation 2.81 2.69  
Year to date precipitation 17.76 18.89  
Sea Level Pressure  
Sea Level Pressure 30.09 in    
Wind  
Wind Speed 3 mph (ENE)    
Max Wind Speed 12 mph    
Max Gust Speed 15 mph    
Visibility 10 miles    
Events      
T = Trace of Precipitation, MM = Missing Value Source: NWS Daily Summary

Daily Weather History Graph

Daily Weather History Graph

Search for Another Location

Airport or City:

Trip Planner

Search our weather history database for the weather conditions in past years. The results will help you decide how hot, cold, wet, or windy it might be!

Date:

Astronomy

Jul. 20, 2012 Rise Set
Actual Time 5:31 AM EDT 8:34 PM EDT
Civil Twilight 4:57 AM EDT 9:08 PM EDT
Nautical Twilight 4:12 AM EDT 9:53 PM EDT
Astronomical Twilight 3:19 AM EDT 10:45 PM EDT
Moon 7:12 AM EDT (7/20) 9:05 PM EDT (7/20)
Length of Visible Light 16h 11m
Length of Day
15h 02m
New Moon, 2% of the Moon is Illuminated
Jul 20
New Moon
Jul 26
First Quarter
Aug 1
Full
Aug 9
Last Quarter
Aug 17
New

Hourly Weather History & Observations

Time (EDT) Temp. Dew Point Humidity Pressure Visibility Wind Dir Wind Speed Gust Speed Precip Events Conditions
12:51 AM 44.1 °F 43.0 °F 96% 30.10 in 10.0 mi Calm Calm - N/A   Clear
1:51 AM 43.0 °F 42.1 °F 97% 30.09 in 10.0 mi Calm Calm - N/A   Clear
2:51 AM 41.0 °F 39.0 °F 93% 30.09 in 10.0 mi Calm Calm - N/A   Clear
3:51 AM 39.0 °F 37.9 °F 96% 30.07 in 10.0 mi Calm Calm - N/A   Clear
4:51 AM 39.0 °F 37.9 °F 96% 30.08 in 10.0 mi Calm Calm - N/A   Clear
5:51 AM 37.9 °F 37.0 °F 97% 30.09 in 10.0 mi Calm Calm - N/A   Clear
6:51 AM 48.0 °F 46.0 °F 93% 30.10 in 10.0 mi Calm Calm - N/A   Clear
7:51 AM 57.0 °F 48.9 °F 74% 30.10 in 10.0 mi ENE 6.9 mph - N/A   Clear
8:51 AM 62.1 °F 48.0 °F 60% 30.11 in 10.0 mi East 8.1 mph - N/A   Clear
9:51 AM 64.0 °F 46.0 °F 52% 30.11 in 10.0 mi ENE 9.2 mph - N/A   Clear
10:51 AM 66.9 °F 45.0 °F 45% 30.11 in 10.0 mi East 8.1 mph - N/A   Partly Cloudy
11:51 AM 69.1 °F 44.1 °F 40% 30.11 in 10.0 mi Calm Calm - N/A   Clear
12:51 PM 71.1 °F 45.0 °F 39% 30.09 in 10.0 mi Calm Calm - N/A   Clear
1:51 PM 72.0 °F 44.1 °F 37% 30.08 in 10.0 mi NNE 8.1 mph - N/A   Clear
2:51 PM 72.0 °F 45.0 °F 38% 30.07 in 10.0 mi Variable 6.9 mph - N/A   Clear
3:51 PM 72.0 °F 45.0 °F 38% 30.07 in 10.0 mi ENE 4.6 mph - N/A   Clear
4:51 PM 73.0 °F 44.1 °F 35% 30.06 in 10.0 mi NW 3.5 mph - N/A   Clear
5:51 PM 73.0 °F 43.0 °F 34% 30.06 in 10.0 mi Calm Calm - N/A   Clear
6:51 PM 71.1 °F 46.0 °F 41% 30.06 in 10.0 mi ENE 6.9 mph - N/A   Clear
7:51 PM 68.0 °F 48.0 °F 49% 30.06 in 10.0 mi ENE 6.9 mph - N/A   Clear
8:51 PM 60.1 °F 48.0 °F 64% 30.07 in 10.0 mi NE 3.5 mph - N/A   Clear
9:51 PM 55.0 °F 48.0 °F 77% 30.09 in 10.0 mi Calm Calm - N/A   Clear
10:51 PM 50.0 °F 46.9 °F 89% 30.10 in 10.0 mi Calm Calm - N/A   Clear
11:51 PM 48.9 °F 46.9 °F 93% 30.10 in 10.0 mi NE 3.5 mph - N/A   Mostly Cloudy